Weather in Donskoy

Russia / Rostov Oblast     46°50′49″N   40°32′55″E
temp.,
°C
wind,
m/s
gust,
m/s
humid.,
%
clouds,
%
prec.,
mm/h
press.,
hPa
HPBL,
m
1 march, mon
mon100:00+1w349897 0.1 1021154
03:00+1w359599 0.1 1021229
06:00+1wsw359898 0.0 1022235
09:00+1wsw359699 0.1 1024286
12:00+2wnw4688100 0.1 1025511
15:00+4wnw457299 0.2 1025848
18:00+2nw227998 0.1 102645
21:000nw228783 0.1 102822
2 march, tue
tue200:000nw229545 0.0 102827
03:000wnw129738 0.0 102930
06:00−1wsw229758 0.0 102849
09:00+1wsw468251 0.0 1028393
12:00+5wsw686324 0.0 10261163
15:00+5w8116043 0.0 10241240
18:00+2wsw8137052 0.0 1021813
21:00+1wsw9167976 0.0 1020700
3 march, wed
wed300:00+2wsw101878100 0.0 1018754
03:00+1wsw111795100 0.1 1016837
06:00+1w91497100 2.6 1014709
09:00+1wnw6998100 6.3 1016424
12:00+2nw6996100 0.8 1018566
15:00+4nw796884 0.9 10191313
18:00+2nw597395 0.1 1021707
21:000wnw498189 0.1 1024265
4 march, thu
thu400:00−1wnw35770 0.0 1025111
03:00−1w35790 0.0 1026109
06:00−1wsw37810 0.0 1026169
09:00+2wsw58670 0.0 1026513
12:00+5wsw68560 0.0 1025949
15:00+6wsw69560 0.0 10231081
18:00+2wsw49720 0.0 1021200
21:00+1sw412720 0.0 1021304
5 march, fri
fri500:00+1sw614780 0.0 1020406
03:00+1sw615850 0.0 1019488
06:00+1wsw613860 0.0 1019435
09:00+3sw712680 0.0 1019721
12:00+7wsw811620 0.0 1018991
15:00+8wsw711580 0.0 10181165
18:00+6sw48700 0.0 1017197
21:00+4sw514760 0.0 1018372